FENGYUN 4A

Last updated on July 16, 2019, 4:07 a.m. UTC

1 41882U 16077A   19196.84980001 -.00000340  00000-0  00000-0 0  9998
2 41882   0.0232  11.5065 0003545 139.5301 192.7433  1.00263470  9628
UTC
Height (km)
Latitude
Longitude
Inclination
Orbital Period
UTC large
Height (km)
Speed (km/s)
/
Latitude / Longitude
Inclination (degrees)
Orbital Period (minutes)
Azimuth
Elevation
Range (km)
Doppler Factor
iOS Compass Heading
iOS Angle

Next 30 passes for location: Hong Kong

Rise time Rise Azimuth (degrees) Set time Set Azimuth (degrees) Duration Max altitude (degrees)

No matching passes for this satellites